Omak, WA

11:16 PM PDT on September 25, 2017 (GMT -0700)
Omak

Weather History for KOMK - October, 2013

Change the Weather History Date:

Friday, October 25, 2013

  Actual Average Record
Temperature  
Mean Temperature 49 °F 45 °F  
Max Temperature 58 °F 56 °F 71 °F (1944)
Min Temperature 40 °F 33 °F 14 °F (2002)
Degree Days  
Heating Degree Days 16 20  
Month to date heating degree days 396 368  
Since 1 July heating degree days 529 529  
Cooling Degree Days 0 0  
Month to date cooling degree days 0 0  
Year to date cooling degree days 814 664  
Moisture  
Dew Point 40 °F    
Average Humidity 78    
Maximum Humidity 100    
Minimum Humidity 55    
Precipitation  
Precipitation 0.00 in 0.05 in 0.48 in (1975)
Month to date precipitation 0.05 0.80  
Year to date precipitation 8.88 10.66  
Sea Level Pressure  
Sea Level Pressure 30.26 in    
Wind  
Wind Speed 8 mph (North)    
Max Wind Speed 14 mph    
Max Gust Speed 18 mph    
Visibility 8 miles    
Events      
T = Trace of Precipitation, MM = Missing Value Source: NWS Daily Summary

Daily Weather History Graph

Daily Weather History Graph

Search for Another Location

Airport or City:

Trip Planner

Search our weather history database for the weather conditions in past years. The results will help you decide how hot, cold, wet, or windy it might be!

Date:

Astronomy

Oct. 25, 2013 Rise Set
Actual Time 7:33 AM PDT 5:49 PM PDT
Civil Twilight 7:01 AM PDT 6:21 PM PDT
Nautical Twilight 6:24 AM PDT 6:58 PM PDT
Astronomical Twilight 5:48 AM PDT 7:34 PM PDT
Moon 11:07 PM PDT (10/25) 1:24 PM PDT (10/25)
Length of Visible Light 11h 20m
Length of Day
10h 16m
Waning Gibbous, 61% of the Moon is Illuminated
Oct 25
Waning Gibbous
Oct 26
Last Quarter
Nov 3
New
Nov 9
First Quarter
Nov 17
Full

Hourly Weather History & Observations

Time (PDT) Temp. Windchill Dew Point Humidity Pressure Visibility Wind Dir Wind Speed Gust Speed Precip Events Conditions
12:53 AM 42.1 °F 37.1 °F 39.0 °F 89% 30.18 in 10.0 mi North 8.1 mph - N/A   Clear
1:49 AM 39.2 °F 32.0 °F 39.2 °F 100% 30.18 in 2.5 mi North 11.5 mph - N/A   Scattered Clouds
1:50 AM 39.9 °F 32.9 °F 39.0 °F 97% 30.20 in 2.5 mi North 11.5 mph - N/A   Scattered Clouds
1:57 AM 41.0 °F 33.9 °F 39.2 °F 93% 30.18 in 3.0 mi NNE 12.7 mph - N/A   Mostly Cloudy
2:06 AM 41.0 °F 33.5 °F 39.2 °F 93% 30.18 in 4.0 mi NNE 13.8 mph - N/A   Scattered Clouds
2:21 AM 41.0 °F 34.7 °F 39.2 °F 93% 30.19 in 4.0 mi North 10.4 mph - N/A   Mostly Cloudy
2:53 AM 42.1 °F 36.1 °F 41.0 °F 96% 30.22 in 3.0 mi NNE 10.4 mph - N/A   Overcast
3:53 AM 41.0 °F 35.2 °F 39.9 °F 96% 30.22 in 6.0 mi NNE 9.2 mph - N/A   Mostly Cloudy
4:53 AM 42.1 °F 35.7 °F 39.9 °F 92% 30.22 in 6.0 mi North 11.5 mph - N/A   Overcast
5:53 AM 42.1 °F 37.1 °F 39.9 °F 92% 30.24 in 8.0 mi NNE 8.1 mph - N/A   Overcast
6:09 AM 42.8 °F 38.0 °F 39.2 °F 87% 30.22 in 9.0 mi North 8.1 mph - N/A   Overcast
6:53 AM 42.1 °F 38.4 °F 39.9 °F 92% 30.25 in 9.0 mi North 5.8 mph - N/A   Overcast
7:53 AM 42.1 °F 37.7 °F 39.0 °F 89% 30.27 in 10.0 mi North 6.9 mph - N/A   Overcast
8:53 AM 43.0 °F 38.8 °F 39.0 °F 86% 30.30 in 10.0 mi North 6.9 mph - N/A   Overcast
9:53 AM 44.1 °F 39.0 °F 39.9 °F 85% 30.31 in 10.0 mi North 9.2 mph - N/A   Overcast
10:53 AM 46.9 °F - 39.9 °F 77% 30.31 in 10.0 mi North 12.7 mph - N/A   Overcast
11:02 AM 46.4 °F 41.1 °F 39.2 °F 76% 30.29 in 10.0 mi North 11.5 mph - N/A   Overcast
11:40 AM 50.0 °F - 39.2 °F 66% 30.29 in 10.0 mi North 10.4 mph - N/A   Scattered Clouds
11:53 AM 51.1 °F - 39.9 °F 66% 30.31 in 10.0 mi NNE 9.2 mph - N/A   Clear
12:53 PM 52.0 °F - 41.0 °F 66% 30.30 in 10.0 mi North 9.2 mph 17.3 mph N/A   Clear
1:53 PM 55.0 °F - 41.0 °F 59% 30.28 in 10.0 mi NNE 8.1 mph - N/A   Clear
2:53 PM 57.0 °F - 41.0 °F 55% 30.27 in 10.0 mi North 4.6 mph - N/A   Clear
3:53 PM 57.0 °F - 41.0 °F 55% 30.27 in 10.0 mi Calm Calm - N/A   Clear
4:53 PM 57.0 °F - 41.0 °F 55% 30.26 in 10.0 mi Calm Calm - N/A   Clear
5:53 PM 46.0 °F 43.1 °F 37.9 °F 73% 30.27 in 10.0 mi North 5.8 mph - N/A   Clear
6:53 PM 43.0 °F 39.5 °F 37.0 °F 80% 30.28 in 10.0 mi NNW 5.8 mph - N/A   Clear
7:53 PM 41.0 °F 37.1 °F 37.0 °F 86% 30.29 in 10.0 mi NNW 5.8 mph - N/A   Clear
8:53 PM 45.0 °F 40.1 °F 39.9 °F 82% 30.29 in 10.0 mi North 9.2 mph - N/A   Clear
9:53 PM 44.1 °F 39.5 °F 39.9 °F 85% 30.31 in 10.0 mi North 8.1 mph - N/A   Clear
10:53 PM 43.0 °F 38.8 °F 39.9 °F 89% 30.32 in 10.0 mi North 6.9 mph - N/A   Clear
11:53 PM 42.1 °F 37.1 °F 39.0 °F 89% 30.32 in 10.0 mi North 8.1 mph - N/A   Clear